STARLINK-32956, 63570

Orbit data source: Space-Track

STARLINK-32956, 63570 is a payload satellite owned by SpaceX/Seattle (US) in LEO that was launched on Mon, 14 Apr 2025 UTC via an FALCON 9 launch vehicle from the Air Force Eastern Test Range (AFETR). Payload-class satellites include a variety of spacecraft equipped with specific instruments for various scientific and technological missions. These include communications satellites like Starlink; space stations such as the ISS; scientific satellites like the Hubble; Earth observation satellites from companies like Planet Labs, Umbra, and HawkEye 360; GPS; miniature CubeSats for education and research; and military/defense satellites.

Loading next visibility...
Identifier
63570, 2025-076B
Orbit
LEO
Country
Flag of USUS
Related business
Manufacturer
SpaceX/Seattle
Mission
Operational Commercial Communications
Bus & Motor
STARLINK V2M, Unknown motor
Mass
730 kg wet, ~700 kg dry
Launch date (UTC)
2025-04-14 (1 year ago)
Launch vehicle
FALCON 9
Launch site
Air Force Eastern Test Range (AFETR)
Object type
Payload
Rocket body
Debris
Shape & HBR
Box + 2 Pan, 17.7 m
Radar Cross Section
33.884 m², Large (>1 m²)

Expand to show TLE details & history
Last TLE update: 9 hours ago

TLE from 9 hours ago
0 STARLINK-32956
1 63570U 25076B   26144.99290966  .00021946  00000-0  80427-3 0  9994
2 63570  42.9956 253.9835 0001275 274.2831  85.7875 15.27595346 63450
Epoch: 2026-05-24T23:49Z
TLE epoch observation values (Epoch: 2026-05-24T23:49:47.394Z)
Latitude
-0.00002°
Longitude
13.94892°
Altitude
482.714 km
Speed
7.626 km/s
True Right ascension
16h 55m 56s
True Declination
0° 00' 00"
Sunlit
Object was in full shadow at epoch
Visualization orbit readout
Latitude
Unknown
Longitude
Unknown
Altitude
Unknown
Speed
Unknown
Apparent Right ascension
Unknown
Apparent Declination
Unknown
Sunlit
N/A
Visualization observer readout
Local Sidereal Time
18:27:36
Azimuth
Unknown
Elevation
Unknown
Doppler factor
Unknown
Orbital elements
Apogee altitude
485.824 km
Perigee altitude
484.074 km
Semi-major axis
6,863.086 km
Eccentricity
0.00013
Inclination
42.9956°
RAAN
253.9835°
Arg. of periapsis
274.2831°
True anomaly
85.80207°
Mean anomaly
85.7875°
Eccentric anomaly
85.79479°
Mean motion
3.81737 °/min
Orbital period
94.31 mins
BSTAR
0.00080427
Loading maneuver chart data...
Computing Atmospheric mass density...
Loading historical data...
Loading historical data...
Loading historical data...
Loading historical data...
Loading historical data...
Loading historical data...
Loading historical data...

Documentation

Showing up to 5 results
|